Overview Statistics Trail Chart Weather Telemetry Raw packets
 

This is the latest recevied weather packets stored in our database for station/object K5OLV. If no packets are shown the sender has not sent any weather packets the latest 10 day(s).

<< 71 72 73 74 75 76 77 >>
Time Temp. Humidity Pressure Rain* Wind** Luminosity Snow
1788110214 28.89° C 73% 1020.2 hPa 0 mm - 715 W/m² -
1788109909 28.33° C 74% 1020.5 hPa 0 mm - 692 W/m² -
1788109604 27.78° C 76% 1020.6 hPa 0 mm - 673 W/m² -
1788109303 27.78° C 76% 1020.6 hPa 0 mm - 183 W/m² -
1788108998 27.78° C 75% 1020.7 hPa 0 mm - 285 W/m² -
1788108693 27.22° C 77% 1020.6 hPa 0 mm - 359 W/m² -
1788108390 27.78° C 76% 1020.8 hPa 0 mm - 750 W/m² -
1788108085 28.33° C 75% 1021 hPa 0 mm - 747 W/m² -
1788107782 28.33° C 74% 1021 hPa 0 mm - 760 W/m² -
1788107482 27.78° C 76% 1021 hPa 0 mm - 700 W/m² -
1788107177 27.78° C 77% 1020.7 hPa 0 mm - 309 W/m² -
1788106873 27.22° C 79% 1020.9 hPa 0 mm - 203 W/m² -
1788106573 26.67° C 78% 1021.1 hPa 0 mm - 502 W/m² -
1788106268 26.11° C 81% 1020.9 hPa 0 mm - 333 W/m² -
1788105964 26.67° C 81% 1020.8 hPa 0 mm - 232 W/m² -
1788105658 27.78° C 78% 1021.1 hPa 0 mm - 308 W/m² -
1788105355 27.78° C 79% 1020.9 hPa 0 mm - 323 W/m² -
1788105050 26.67° C 81% 1020.9 hPa 0 mm - 793 W/m² -
1788104745 26.67° C 81% 1021 hPa 0 mm - 746 W/m² -
1788104442 25.56° C 84% 1020.9 hPa 0 mm - 804 W/m² -
1788104138 25.56° C 84% 1021.1 hPa 0 mm - 791 W/m² -
1788103837 25.56° C 83% 1020.9 hPa 0 mm - 452 W/m² -
1788103532 25.56° C 84% 1020.9 hPa 0 mm - 628 W/m² -
1788103231 26.67° C 81% 1021.1 hPa 0 mm - 224 W/m² -
1788102931 25.56° C 84% 1021.2 hPa 0 mm - 721 W/m² -

* Rain latest hour (hover to see other rain measurements)
** Current wind speed in m/s (hover to see current wind gust speed)